EW1160 Weather Reports


Display with metric or nautical units.
time (UTC)temp
F
wind
direction
speed
MPH
gust
MPH
rain 1hr
in
rain 24hr
in
rain mn
in
humidity
%
barometer
mb
20260901214522 89 79 0.0 1.0 0.00 0.32 0.31 70 1010.0
20260901213003 89 79 0.0 3.0 0.00 0.32 0.31 71 1010.0
20260901211501 89 79 0.0 2.0 0.00 0.32 0.31 73 1010.1
20260901210104 88 78 0.0 2.0 0.00 0.32 0.31 73 1010.1
20260901204540 87 78 0.0 2.0 0.00 0.32 0.31 77 1010.2
20260901203052 86 79 0.0 2.0 0.00 0.32 0.31 79 1010.1
20260901201516 85 78 1.0 4.0 0.00 0.32 0.31 81 1010.3
20260901200017 84 78 1.0 3.0 0.00 0.32 0.31 83 1010.3
20260901194554 83 77 2.0 5.0 0.00 0.35 0.31 83 1010.3
20260901193058 82 99 0.0 3.0 0.00 0.35 0.31 84 1010.5
20260901191542 82 29 0.0 7.0 0.00 0.35 0.31 84 1010.6
20260901190040 82 57 1.0 7.0 0.00 0.35 0.31 83 1010.7
20260901184540 81 38 0.0 5.0 0.00 0.37 0.31 83 1010.7
20260901183046 82 11 2.0 7.0 0.00 0.37 0.31 83 1010.8
20260901181537 82 50 0.0 5.0 0.31 0.37 0.31 84 1010.8
20260901180035 82 43 0.0 5.0 0.31 0.37 0.31 84 1010.7
20260901174535 81 354 0.0 4.0 0.31 0.37 0.31 85 1010.7
20260901173049 81 354 0.0 5.0 0.31 0.37 0.31 84 1010.8
20260901171515 81 339 0.0 4.0 0.00 0.06 0.00 84 1010.9
20260901170013 80 320 0.0 5.0 0.00 0.06 0.00 85 1011.0
20260901164600 80 288 0.0 3.0 0.00 0.06 0.00 86 1011.0
20260901163052 79 280 1.0 3.0 0.00 0.06 0.00 87 1011.2
20260901161536 78 280 0.0 2.0 0.00 0.06 0.00 88 1011.3
20260901160032 77 280 0.0 4.0 0.00 0.06 0.00 88 1011.4
20260901154511 77 280 1.0 4.0 0.00 0.16 0.00 88 1011.5
20260901153009 77 280 2.0 5.0 0.00 0.16 0.00 88 1011.5
20260901151551 76 280 1.0 4.0 0.00 0.16 0.00 88 1011.6
20260901150053 77 280 1.0 4.0 0.00 0.16 0.00 88 1011.4
20260901144532 77 257 1.0 5.0 0.00 0.16 0.00 88 1011.5
20260901143037 76 247 0.0 1.0 0.00 0.16 0.00 89 1011.4
20260901141521 76 236 0.0 0.0 0.00 0.16 0.00 89 1011.1
20260901140020 76 236 0.0 0.0 0.00 0.16 0.00 89 1011.1
20260901134522 75 217 0.0 0.0 0.00 0.16 0.00 91 1011.2
20260901133013 74 174 0.0 0.0 0.00 0.16 0.00 92 1011.2
20260901131514 74 174 0.0 0.0 0.00 0.16 0.00 92 1011.3
20260901130027 73 173 0.0 0.0 0.00 0.16 0.00 92 1011.4
20260901124508 73 172 0.0 0.0 0.00 0.16 0.00 93 1011.5
20260901123009 72 173 0.0 0.0 0.00 0.16 0.00 93 1011.5
20260901121545 71 173 0.0 0.0 0.00 0.16 0.00 93 1011.2
20260901120053 71 173 0.0 0.0 0.00 0.16 0.00 93 1011.2
20260901114525 71 172 0.0 0.0 0.00 0.16 0.00 93 1011.1
20260901113023 70 172 0.0 0.0 0.00 0.16 0.00 93 1010.9
20260901111512 70 172 0.0 0.0 0.00 0.16 0.00 93 1010.8
20260901110012 70 172 0.0 0.0 0.00 0.16 0.00 93 1010.8
20260901104511 71 172 0.0 0.0 0.00 0.16 0.00 93 1010.7
20260901103013 71 172 0.0 0.0 0.00 0.16 0.00 93 1010.6
20260901101511 71 173 0.0 0.0 0.00 0.16 0.00 92 1010.6
20260901100009 71 172 0.0 0.0 0.00 0.16 0.00 92 1010.5
20260901094508 71 171 0.0 0.0 0.00 0.16 0.00 92 1010.5
20260901093008 71 171 0.0 0.0 0.00 0.16 0.00 92 1010.6
20260901091554 71 172 0.0 0.0 0.00 0.16 0.00 92 1010.5
20260901090050 71 172 0.0 0.0 0.00 0.16 0.00 92 1010.3
20260901084541 71 172 0.0 0.0 0.00 0.19 0.00 92 1010.1
20260901083039 71 172 0.0 0.0 0.00 0.19 0.00 92 1010.2
20260901081538 71 172 0.0 0.0 0.00 0.19 0.00 92 1010.2
20260901080037 71 172 0.0 0.0 0.00 0.19 0.00 92 1010.1
20260901074536 71 172 0.0 0.0 0.00 0.19 0.00 91 1010.1
20260901073037 71 171 0.0 0.0 0.00 0.19 0.00 91 1010.1
20260901071536 71 172 0.0 0.0 0.00 0.19 0.00 91 1010.1
20260901070035 71 171 0.0 0.0 0.00 0.19 0.00 91 1010.1
20260901064525 71 171 0.0 0.0 0.00 0.19 0.00 91 1010.1
20260901063016 71 169 0.0 0.0 0.00 0.19 0.00 91 1010.2
20260901061503 71 170 0.0 0.0 0.00 0.19 0.00 91 1010.4
20260901060002 71 171 0.0 0.0 0.00 0.19 0.00 91 1010.5
20260901054505 71 168 0.0 0.0 0.00 0.19 0.00 90 1010.7
20260901053124 71 166 0.0 0.0 0.00 0.19 0.00 90 1010.7
20260901051610 71 167 0.0 0.0 0.00 0.19 0.00 90 1010.8
20260901050059 70 171 0.0 0.0 0.00 0.19 0.00 90 1010.8
20260901044608 70 160 0.0 0.0 0.00 0.19 0.00 90 1010.7
20260901043059 70 173 0.0 0.0 0.00 0.19 0.00 90 1010.6
20260901041546 70 183 0.0 0.0 0.00 0.19 0.00 91 1010.7
20260901040105 70 164 0.0 0.0 0.00 0.19 0.00 91 1010.8
20260901034600 70 182 0.0 0.0 0.00 0.19 0.19 91 1010.9
20260901033043 71 164 0.0 0.0 0.00 0.19 0.19 91 1010.9
20260901031543 71 160 0.0 0.0 0.00 0.19 0.19 91 1011.1
20260901030042 71 159 0.0 0.0 0.00 0.19 0.19 90 1011.2
20260901024550 71 158 0.0 0.0 0.00 0.19 0.19 91 1011.4
20260901023056 72 171 0.0 0.0 0.00 0.19 0.19 91 1011.3
20260901021526 72 174 0.0 0.0 0.00 0.19 0.19 90 1011.3
20260901020024 72 175 0.0 0.0 0.00 0.19 0.19 90 1011.1
20260901014506 72 158 0.0 0.0 0.00 0.19 0.19 91 1011.0
20260901013005 72 359 0.0 0.0 0.00 0.19 0.19 90 1010.9
20260901011548 72 158 0.0 2.0 0.00 0.19 0.19 90 1010.8
20260901010048 72 156 0.0 0.0 0.00 0.19 0.19 90 1010.8
20260901004533 72 161 0.0 0.0 0.00 0.20 0.19 90 1010.8
20260901003030 72 154 0.0 0.0 0.00 0.20 0.19 90 1010.9
20260901001514 73 162 0.0 6.0 0.00 0.20 0.19 89 1011.0
20260901000011 72 179 0.0 6.0 0.00 0.20 0.19 89 1011.2
20260831234554 72 156 0.0 6.0 0.00 0.30 0.19 90 1011.2
20260831233055 73 159 0.0 5.0 0.01 0.30 0.19 91 1011.4
20260831231535 73 164 2.0 6.0 0.01 0.30 0.19 91 1011.5
20260831230034 73 199 0.0 3.0 0.01 0.30 0.19 91 1011.9
20260831224517 73 201 0.0 0.0 0.01 0.40 0.19 90 1011.8
20260831223019 73 157 0.0 0.0 0.00 0.39 0.18 91 1011.7
20260831221617 73 162 0.0 0.0 0.00 0.39 0.18 92 1011.9
20260831220119 72 359 0.0 0.0 0.00 0.39 0.18 91 1012.2